Flag for Kazakhstan Weather past 2 weeks in Karaganda, Kazakhstan

Now
59 °F

Broken clouds.


Feels Like: 60 °F
Forecast: 41 / 59 °F
Wind: 3 mph from Northwest

Location: Karaganda

Current Time: May 23, 2015 at 7:47:19 PM

Latest Report: May 23, 2015 at 7:00 PM


Visibility: N/A

Pressure: 29.83 "Hg

Humidity: 55%

Dew point: 43 °F

Location of KaragandaLocation

Historic Weather in Karaganda — Graph

°F

Karaganda temperature yesterday

Maximum temperature yesterday: 59 °F (at 2:00 PM)
Minimum temperature yesterday: 43 °F (at 2:00 AM)
Average temperature yesterday: 50 °F

Past Weeks' High & Low Weather Summary

 TemperatureHumidityPressure
High77 °F (May 8, 6:00 PM)100% (May 12, 11:30 PM)30.18 "Hg (May 12, 11:30 PM)
Low30 °F (May 13, 4:30 AM)30% (May 8, 6:00 PM)29.45 "Hg (May 16, 7:30 PM)
Average56 °F73%29.88 "Hg
* Reported May 8 6:00 PM — May 23 6:30 PM, Karaganda, Weather by CustomWeather, © 2015

Note: Actual official high and low records may vary slightly from our data, if they occured in-between our weather recording intervals... More about our weather records

Advertising

Karaganda weather history for previous 24 hours

 ConditionsComfort  
Time TempWeatherWind HumidityBarometerVisibility
6:30 PM
Sat, May 23
59 °FBroken clouds.3 mph55%29.83 "HgN/A
6:00 PM59 °FBroken clouds.3 mph59%29.83 "HgN/A
5:30 PM57 °FPartly sunny.8 mph67%29.83 "HgN/A
5:00 PM59 °FPartly sunny.13 mph55%29.83 "HgN/A
4:30 PM59 °FPartly sunny.8 mph55%29.83 "HgN/A
4:00 PM59 °FPartly sunny.8 mph68%29.83 "HgN/A
3:30 PM57 °FThundershowers. Partly sunny.8 mph67%29.83 "HgN/A
3:00 PM55 °FThundershowers. Partly sunny.8 mph77%29.83 "HgN/A
2:30 PM54 °FSprinkles. Partly sunny.15 mph72%29.83 "HgN/A
2:00 PM59 °FPartly sunny.8 mph68%29.83 "HgN/A
1:30 PM55 °FPartly sunny.13 mph63%29.83 "HgN/A
1:00 PM57 °FPartly sunny.10 mph59%29.80 "HgN/A
12:30 PM57 °FPartly sunny.6 mph59%29.80 "HgN/A
12:00 PM59 °FPartly sunny.6 mph63%29.80 "HgN/A
11:30 AM57 °FPartly sunny.8 mph67%29.83 "HgN/A
11:00 AM55 °FPartly sunny.6 mph67%29.83 "HgN/A
10:30 AM55 °FBroken clouds.6 mph77%29.83 "HgN/A
10:00 AM54 °FBroken clouds.6 mph82%29.80 "HgN/A
9:30 AM54 °FPartly sunny.6 mph82%29.83 "HgN/A
9:00 AM52 °FBroken clouds.3 mph82%29.83 "HgN/A
8:30 AM52 °FBroken clouds.3 mph88%29.83 "HgN/A
8:00 AM50 °FScattered clouds.6 mph94%29.80 "HgN/A
7:30 AM48 °FScattered clouds.3 mph94%29.80 "HgN/A
7:00 AM45 °FPassing clouds.6 mph100%29.80 "HgN/A
6:30 AM45 °FScattered clouds.3 mph100%29.80 "HgN/A
6:00 AM43 °FPassing clouds.3 mph100%29.80 "HgN/A
5:30 AM41 °FPassing clouds.3 mph93%29.77 "HgN/A
5:00 AM41 °FPartly cloudy.6 mph100%29.77 "HgN/A
4:30 AM43 °FPartly cloudy.6 mph93%29.77 "HgN/A
4:00 AM45 °FPartly cloudy.6 mph93%29.77 "HgN/A
3:30 AM45 °FPassing clouds.6 mph93%29.77 "HgN/A
3:00 AM45 °FPassing clouds.3 mph93%29.77 "HgN/A
2:30 AM46 °FPassing clouds.3 mph87%29.77 "HgN/A
2:00 AM46 °FOvercast.6 mph93%29.77 "HgN/A
1:30 AM46 °FSprinkles. Overcast.6 mph93%29.77 "HgN/A
1:00 AM46 °FSprinkles. Overcast.13 mph93%29.77 "Hg3 mi
12:30 AM48 °FOvercast.3 mph87%29.77 "HgN/A
12:00 AM48 °FSprinkles. Overcast.8 mph87%29.77 "HgN/A
11:30 PM
Fri, May 22
48 °FMostly cloudy.10 mph87%29.77 "HgN/A
11:00 PM48 °FOvercast.10 mph87%29.80 "HgN/A
10:30 PM48 °FPassing clouds.8 mph87%29.80 "HgN/A
10:00 PM46 °FPassing clouds.3 mph87%29.80 "HgN/A
9:30 PM46 °FPartly sunny.3 mph87%29.80 "HgN/A
9:00 PM46 °FBroken clouds.6 mph87%29.80 "HgN/A
8:30 PM48 °FBroken clouds.6 mph87%29.77 "HgN/A
8:00 PM48 °FBroken clouds.8 mph94%29.80 "HgN/A
7:30 PM50 °FPartly sunny.10 mph82%29.80 "HgN/A
7:00 PM50 °FSprinkles. Partly sunny.8 mph88%29.83 "HgN/A
Weather by CustomWeather, © 2015

See weather overviewHow to use our weather pages